This demonstration page uses our WeatherBlox Daily Observations layout. Learn more.

Left ArrowRight Arrow

44.89941, -97.11507

Hourly Observations for July 24, 2016

Temp ( °F °C ) Dew Point ( °F °C ) Humidity (%) Winds ( mph kmh ) Pressure ( in mb ) Visibility ( mi km ) Precip ( " mm )
12:53 am 00:53 Clear 73 22.8 69 20.6 87 87 NNW 10 17 29.83 1010 10 16 0.00 0.00
1:53 am 01:53 Clear 72 22.2 69 20.6 91 91 NW 8 13 29.84 1011 10 16 0.00 0.00
2:53 am 02:53 Clear 71 21.7 67 19.4 87 87 NW 6 9 29.85 1011 10 16 0.00 0.00
3:53 am 03:53 Clear 71 21.7 66 18.9 84 84 NW 7 11 29.85 1011 10 16 0.00 0.00
4:53 am 04:53 Clear 69 20.6 63 17.2 81 81 NW 12 19 29.87 1012 10 16 0.00 0.00
5:53 am 05:53 Clear 67 19.4 61 16.1 81 81 NW 10 17 29.89 1012 10 16 0.00 0.00
6:53 am 06:53 Sunny 66 18.9 59 15 78 78 NNW 12 19 29.90 1013 10 16 0.00 0.00
7:53 am 07:53 Sunny 67 19.4 60 15.6 79 79 N 10 17 29.92 1013 10 16 0.00 0.00
8:53 am 08:53 Sunny 69 20.6 61 16.1 76 76 NW 10 17 29.95 1014 10 16 0.00 0.00
9:53 am 09:53 Sunny 71 21.7 60 15.6 68 68 NNW 13 20 29.97 1015 10 16 0.00 0.00
10:53 am 10:53 Sunny 74 23.3 60 15.6 62 62 NNW 15 24 29.95 1014 10 16 0.00 0.00
11:53 am 11:53 Sunny 75 23.9 60 15.6 60 60 N 10 17 29.95 1014 10 16 0.00 0.00
12:53 pm 12:53 Sunny 76 24.4 58 14.4 54 54 NW 10 17 29.97 1015 10 16 0.00 0.00
1:53 pm 13:53 Sunny 78 25.6 57 13.9 48 48 NW 16 26 30.00 1016 10 16 0.00 0.00
2:53 pm 14:53 Sunny 78 25.6 56 13.3 47 47 NW 12 19 30.01 1016 10 16 0.00 0.00
3:53 pm 15:53 Sunny 83 28.3 58 14.4 43 43 W 9 15 29.99 1016 10 16 0.00 0.00
4:53 pm 16:53 Sunny 82 27.8 57 13.9 42 42 NW 15 24 29.99 1016 10 16 0.00 0.00
5:53 pm 17:53 Sunny 83 28.3 56 13.3 40 40 WNW 13 20 29.98 1015 10 16 0.00 0.00
6:53 pm 18:53 Sunny 82 27.8 55 12.8 40 40 WNW 13 20 29.99 1016 10 16 0.00 0.00
7:53 pm 19:53 Sunny 80 26.7 57 13.9 45 45 NW 10 17 29.99 1016 10 16 0.00 0.00
8:53 pm 20:53 Sunny 74 23.3 59 15 60 60 NNW 6 9 30.01 1016 10 16 0.00 0.00
9:53 pm 21:53 Clear 72 22.2 59 15 64 64 NW 3 6 30.03 1017 10 16 0.00 0.00
10:53 pm 22:53 Clear 69 20.6 60 15.6 73 73 W 5 7 30.05 1018 10 16 0.00 0.00
11:53 pm 23:53 Clear 67 19.4 60 15.6 79 79 W 5 7 30.04 1017 10 16 0.00 0.00

Powered by AerisWeather